Олёкминск

Россия / Республика Саха (Якутия)     60°22′22″N   120°24′11″E
темп.,
°C
ветер,
м/с
пор.,
м/с
влажн.,
%
обл.,
%
осадки,
мм/ч
давл.,
гПа
погр.,
м
1 марта, пн
пн100:00−29зюз229798 0.0 103426
03:00−31юз229788 0.0 103423
06:00−32юз229866 0.0 103419
09:00−32ююз229882 0.0 103329
12:00−26зюз238882 0.0 1032362
15:00−23зсз248088 0.0 1030983
18:00−26зюз118899 0.0 102919
21:00−30ююз119497 0.0 102919
2 марта, вт
вт200:00−32ююв119522 0.0 102819
03:00−33юв119625 0.0 102819
06:00−35вюв119740 0.0 102719
09:00−34в119620 0.0 102519
12:00−25в128715 0.0 1023332
15:00−21в238051 0.0 1021681
18:00−24всв228994 0.0 102020
21:00−28в229187 0.0 102119
3 марта, ср
ср300:00−32св129355 0.0 102019
03:00−33ссв129658 0.0 102019
06:00−35ссв129966 0.0 102119
09:00−35с119962 0.0 102219
12:00−28с239188 0.0 1021311
15:00−24с248894 0.0 1021552
18:00−27с239297 0.0 102362
21:00−33сз129679 0.0 102619
4 марта, чт
чт400:00−35зсз229866 0.0 102719
03:00−37з229656 0.0 102919
06:00−37зюз239580 0.0 103050
09:00−34з4109190 0.0 1031405
12:00−30з51089100 0.0 1030622
15:00−27з61190100 0.1 1029771
18:00−27з51285100 0.1 1030853
21:00−27зсз51286100 0.1 1031744
5 марта, пт
пт500:00−27зсз51287100 0.0 1032797
03:00−28зсз51287100 0.0 1034689
06:00−30з31088100 0.0 1036368
09:00−30з3118879 0.0 1037475
12:00−25зсз5108331 0.0 1036757
15:00−22зсз588027 0.0 1035924
18:00−23з368895 0.0 1034158
21:00−28юз229279 0.0 103519